Regional Weather Roundup
Issued by NWS New Orleans/Baton Rouge, LA

Home | Current Version | Previous Version | Graphics & Text | Print | Product List | Glossary On
Versions: 1 2 3 4 5 6 7 8 9 10 11 12 13 14 15 16 17 18 19 20 21 22 23 24 25 26 27 28 29 30 31 32 33 34 35 36 37 38 39 40 41 42 43 44 45 46 47 48 49 50
390
ASUS44 KLIX 171708
RWRLIX
NEW ORLEANS REGIONAL WEATHER ROUNDUP
NATIONAL WEATHER SERVICE NEW ORLEANS LA
1200 PM CDT FRI APR 17 2015

NOTE: "FAIR" INDICATES FEW OR NO CLOUDS BELOW 12,000 FEET WITH NO
      SIGNIFICANT WEATHER AND/OR OBSTRUCTIONS TO VISIBILITY.
      SKY/WX - SKY CONDITION AND SIGNIFICANT WEATHER.
      TMP - AIR TEMPERATURE.     DP    - DEWPOINT TEMPERATURE.
      RH  - RELATIVE HUMIDITY.   PRES  - PRESSURE.
      HI  - HEAT INDEX.          WCI   - WIND CHILL INDEX.

*  THESE STATIONS ARE NOT NWS OR FAA STATIONS AND ARE NOT UNDER
   NWS QUALITY CONTROL.

LAZ038-040-048-061>063-065>067-069-171800-
SOUTHEAST LOUISIANA

CITY           SKY/WX    TMP DP  RH WIND       PRES   REMARKS
N.O. AUDUBON   NOT AVBL
N.O. INTL ARPT CLOUDY    76  69  79 S6        30.00S
N.O. LAKEFRONT PTSUNNY   79  69  71 S10       30.00F
SLIDELL        CLOUDY    78  70  76 S9        29.99F
BATON ROUGE    PTSUNNY   77  69  76 CALM      30.01R
BOOTHVILLE     CLOUDY    74  71  91 S14       30.00F
BELLE CHASSE   DRIZZLE   74  70  87 VRB3      29.99F FOG
BOGALUSA*        N/A     80  68  67 SE5       30.02S
GALLIANO*      CLOUDY    78  71  80 S9G17     30.00S
NEW ROADS*     CLOUDY    76  68  76 SW3       30.02R
GONZALES*      PTSUNNY   77  71  81 S5        30.00R
HAMMOND*       PTSUNNY   79  68  69 S6        30.02S
HOUMA*         CLOUDY    75  72  88 SE6       29.99F
PORT FOURCHON* PTSUNNY   75  72  88 S12       30.01F

$$

MSZ070-080>082-171800-
SOUTHERN MISSISSIPPI

CITY           SKY/WX    TMP DP  RH WIND       PRES   REMARKS
MCCOMB         PTSUNNY   78  69  73 S8        30.01S
GULFPORT       LGT RAIN  74  71  91 S6        30.00F
BILOXI         LGT RAIN  74  74 100 SW9       29.99F
PASCAGOULA     RAIN      74  71  91 VRB3      30.00F
STENNIS ARPT*  RAIN      75  66  73 MISG      30.01S

$$

COASTAL OBSERVATIONS
LAKE AND NEARSHORE STATIONS

STATION/POSITION TIME  TEMP    WIND        PRES    WAVE
                       AIR SEA DIR/SP/G            HT/PER
                 (UTC) (F)     (DEG/KT/KT) (MB)    (FT/S)
PASCAGOULA       1600   74     170/  6/  9 1015.8
WAVELAND YACHT   1600   74 73  190/  5/  8 1016.3
GRAND ISLE       1600   74 75  180/ 10/ 16 1015.5
SOUTHWEST PASS   1600   73 63  170/ 24/ 28 1016.1
NEW CANAL        1600   75     190/  4/  6 1016.6
SHELL BEACH      1600   73 74  170/ 10/ 13 1015.6

OFFSHORE STATIONS

STATION/POSITION TIME  TEMP    WIND        PRES    WAVE
                       AIR SEA DIR/SP/G            HT/PER
                 (UTC) (F)     (DEG/KT/KT) (MB)    (FT/S)
64 S DAUPHIN ISL 1650   75 75  190/ 23/ 27 1015.8    5/ 6

$$




USA.gov is the U.S. government's official web portal to all federal, state and local government web resources and services.